Retour au catalogue

STARLINK-34201

ActifCommunicationsVLEO
NORAD 64077·PAYLOAD·🇺🇸 United States

Lancé May 21, 2025 depuis Cape Canaveral Space Force Station

Loading…

Prochains Passages (prochaines 24 heures)

TLE

FraisSource: CelesTrak SupGP

Époque: Sep 14, 2026, 21:11 UTC

1 64077C 25107P   26257.88312500  .00031184  00000+0  11293-2 0  2579
2 64077  42.9997 213.3692 0001495 261.3940  33.7849 15.27567198    12

Suivez STARLINK-34201 en temps réel avec AllMySat

Download on the App Store